Airfield :
LOGIN :

Register | Disclaimer

   EN    FR    IT 

 










Legend :    VFR   Marginal VFR   IFR   Intensive IFR   Very Intensive IFR
Visi :
Ceiling :
>= 8 km
>= 3000ft
5 to 8 km
1000 to 3000 ft
1500m to 5 km
500 to 1000 ft
800 to 1500m
200 to 500 ft
< 800m
< 200 ft
Symbols :   Thunderstorms  Fog  Heavy snow  Heavy precipitations  Wind > 20 kt
SIGMETs :     Misc.  Thunderstorms  Icing  Turbulence  Mountain Waves  Volcanic Ashes






- Airport Elevation : 302 ft


LFPM - Melun Villaroche

CURRENT METAR :
  • 161100Z AUTO 06008KT 010V100 CAVOK 10/M03 Q1026

EXPIRED METARs :
  • 161030Z AUTO 04008KT 360V090 CAVOK 10/M02 Q1026
  • 161000Z AUTO 05009KT 360V110 9999 FEW048 SCT056 BKN110 09/M02 Q1026
  • 160930Z AUTO 05008KT 350V090 9999 FEW047 09/M01 Q1027
  • 160900Z AUTO 05008KT 360V100 CAVOK 09/M01 Q1027
  • 160830Z AUTO 05006KT 350V110 CAVOK 08/M01 Q1027

Expired Forecast.
ATIS : +33 1 64 14 28 44



MET'MAP, your aeronautical weather chart ! - Copyright ORBIFLY December 2007 - Disclaimer

ORBIFLY MET'MAP TEAM :

Programming & Development : Alexandra Zaïnal
Concept & original design : Baudouin d'Aumeries
Assistance for programming : Marc-Olivier Méhu
Technical & hardware support : Manuel Goepfert

Contact : metmap@orbifly.com




SOURCES & CREDITS :

   NOAA